Погода в Обухове

Украина / Киевская область     50°06′41″N   30°37′37″E
темп.,
°C
ветер,
м/с
пор.,
м/с
влажн.,
%
обл.,
%
осадки,
мм/ч
давл.,
гПа
погр.,
м
22 апреля, чт
чт2200:00+7юз478210 0.0 1015105
03:00+6юз48838 0.0 1016133
06:00+5юз48855 0.0 1016123
09:00+11юз58665 0.0 1017374
12:00+16юз794832 0.0 10171856
15:00+16ююз6949100 0.0 10161822
18:00+14ю51159100 0.0 1015472
21:00+11ю614725 0.0 1015328
23 апреля, пт
пт2300:00+9ююз4118463 0.3 1016299
03:00+7ююз4892100 0.3 1015154
06:00+7сз589385 0.0 1016335
09:00+6сз5782100 0.2 1017551
12:00+5ссз2586100 2.4 1018433
15:00+9зсз4662100 2.8 10171335
18:00+10зсз3552100 0.0 10161583
21:00+5з377886 0.1 1017150
24 апреля, сб
сб2400:00+3з48805 0.0 1017156
03:00+2з48840 0.0 1017158
06:00+1зюз49885 0.0 1016173
09:00+2зсз8129085 0.8 1017854
12:00+5зсз10126093 0.6 10181805
15:00+7зсз9124694 0.9 10182425
18:00+7зсз7105776 0.1 10191586
21:00+3з487110 0.1 1021146
25 апреля, вс
вс2500:00+2зюз49755 0.0 1021161
03:00+1зюз48780 0.0 1021136
06:000юз498014 0.0 1020166
09:00+6зюз6865100 0.1 10191082
12:00+4зюз51095100 1.1 1020909
15:00+7з5872100 1.9 10191154
18:00+8сз566439 0.2 10181211
21:00+4зсз377999 0.4 1019209
26 апреля, пн
пн2600:00+1зсз35834 0.0 102073
03:000з35854 0.0 101987
06:00−1зюз37864 0.0 1019123
09:00+5з576414 0.0 1018786
12:00+7з7956100 1.3 10171944
15:00+6зсз795299 2.2 10171797
18:00+7сз69535 0.1 10171856
21:00+2зсз3969100 0.1 1018217